Probability
0 0 0 0 0 0 0 0 0 0 0 0 0 0 0 0 0 0 0 0 0 0 0 0 0 0 0 0 0 0 0 0 0 0 0 0 0 0 0 0 0 0 0 0
0 0 0 0 0 0 0 0 0 0 0 0 0 0 0 0 0 0 0 0 0 0 0 0 0 0 0 0 0 0 0 0 0 0 0 0 0 0 0 0 0 0 0 0
0 0 0 0 0 0 0 0 0 0 0 0 0 0 0 0 0 0 0 0 0 0 0 0 0 0 0 0 0 0 0 0 0 0 0 0 0 0 0 0 0 0 0 0
0 0 0 0 0 0 0 0 0 0 0 0 0 0 0 0 0 0 0 0 0 0 0 0 0 0 0 0 0 0 0 0 0 0 0 0 0 0 0 0 0 0 0 0
0 0 0 0 0 0 0 0 0 0 0 0 0 0 0 0 0 0 0 0 0 0 0 0 0 0 0 0 0 0 0 0 0 0 0 0 0 0 0 0 0 0 0 0
0 0 0 0 0 0 0 0 0 0 0 0 0 0 0 0 0 0 0 0 0 0 0 0 0 0 0 0 0 0 0 0 0 0 0 0 0 0 0 0 0 0 0 0
0 0 0 0 0 0 0 0 0 0 0 0 0 0 0 0 0 0 0 0 0 0 0 0 0 0 0 0 0 0 0 0 0 0 0 0 0 0 0 0 0 0 0 0
0 0 0 0 0 0 0 0 0 0 0 0 0 0 0 0 0 0 0 0 0 0 0 0 0 0 0 0 0 0 0 0 0 0 0 0 0 0 0 0 0 0 0 0
0 0 0 0 0 0 0 0 0 0 0 0 0 0 0 0 0 0 0 0 0 0 0 0 0 0 0 0 0 0 0 0 0 0 0 0 0 0 0 0 0 0 0 0
0 0 0 0 0 0 0 0 0 0 0 0 0 0 0 0 0 0 0 0 0 0 0 0 0 0 0 0 0 0 0 0 0 0 0 0 0 0 0 0 0 0 0 0
0 0 0 0 0 0 0 0 0 0 0 0 0 0 0 0 0 0 0 0 0 0 0 0 0 0 0 0 0 0 0 0 0 0 0 0 0 0 0 0 0 0 0 0
0 0 0 0 0 0 0 0 0 0 0 0 0 0 0 0 0 0 0 0 0 0 0 0 0 0 0 0 0 0 0 0 0 0 0 0 0 0 0 0 0 0 0 0
0 0 0 0 0 0 0 0 0 0 0 0 0 0 0 0 0 0 0 0 0 0 0 0 0 0 0 0 0 0 0 0 0 0 0 0 0 0 0 0 0 0 0 0
0 0 0 0 0 0 0 0 0 0 0 0 0 0 0 0 0 0 0 0 0 0 0 0 0 0 0 0 0 0 0 0 0 0 0 0 0 0 0 0 0 0 0 0
0 0 0 0 0 0 0 0 0 0 0 0 0 0 0 0 0 0 0 0 0 0 0 0 0 0 0 0 0 0 0 0 0 0 0 0 0 0 0 0 0 0 0 0
0 0 0 0 0 0 0 0 0 0 0 0 0 0 0 0 0 0 0 0 0 0 0 0 0 0 0 0 0 0 0 0 0 0 0 0 0 0 0 0 0 0 0 0
0 0 0 0 0 0 0 0 0 0 0 0 0 0 0 0 0 0 0 0 0 0 0 0 0 0 0 0 0 0 0 0 0 0 0 0 0 0 0 0 0 0 0 0
0 0 0 0 0 0 0 0 0 0 0 0 0 0 0 0 0 0 0 0 0 0 0 0 0 0 0 0 0 0 0 0 0 0 0 0 0 0 0 0 0 0 0 0
0 0 0 0 0 0 0 0 0 0 0 0 0 0 0 0 0 0 0 0 0 0 0 0 0 0 0 0 0 0 0 0 0 0 0 0 0 0 0 0 0 0 0 0
0 0 0 0 0 0 0 0 0 0 0 0 0 0 0 0 0 0 0 0 0 0 0 0 0 0 0 0 0 0 0 0 0 0 0 0 0 0 0 0 0 0 0 0
0 0 0 0 0 0 0 0 0 0 0 0 0 0 0 0 0 0 0 0 0 0 0 0 0 0 0 0 0 0 0 0 0 0 0 0 0 0 0 0 0 0 0 0
0 0 0 0 0 0 0 0 0 0 0 0 0 0 0 0 0 0 0 0 0 0 0 0 0 0 0 0 0 0 0 0 0 0 0 0 0 0 0 0 0 0 0 0
0 0 0 0 0 0 0 0 0 0 0 0 0 0 0 0 0 0 0 0 0 0 0 0 0 0 0 0 0 0 0 0 0 0 0 0 0 0 0 0 0 0 0 0
0 0 0 0 0 0 0 0 0 0 0 0 0 0 0 0 0 0 0 0 0 0 0 0 0 0 0 0 0 0 0 0 0 0 0 0 0 0 0 0 0 0 0 0
0 0 0 0 0 0 0 0 0 0 0 0 0 0 0 0 0 0 0 0 0 0 0 0 0 0 0 0 0 0 0 0 0 0 0 0 0 0 0 0 0 0 0 0
0 0 0 0 0 0 0 0 0 0 0 0 0 0 0 0 0 0 0 0 0 0 0 0 0 0 0 0 0 0 0 0 0 0 0 0 0 0 0 0 0 0 0 0
0 0 0 0 0 0 0 0 0 0 0 0 0 0 0 0 0 0 0 0 0 0 0 0 0 0 0 0 0 0 0 0 0 0 0 0 0 0 0 0 0 0 0 0
Wind_Speed
7 4 4 8 10 11 10 7 6 7 8 10 13 12 12 11 12 13 14 13 13 12 11 11 11 11 10 10 9 7 7 7 6 5 5 4 4 3 2 2 3 4 5 6
4 2 2 5 9 9 8 7 7 7 7 8 10 8 10 11 11 12 12 12 12 12 12 12 12 11 11 11 10 10 10 9 8 7 7 7 6 5 5 4 3 2 2 3
3 2 5 2 5 5 4 5 5 5 5 10 9 9 9 10 10 11 12 12 12 12 12 11 11 11 11 11 10 11 11 10 9 9 9 8 8 8 7 6 6 5 5 3
1 4 1 6 2 1 2 1 3 4 7 8 8 6 5 9 10 10 11 11 11 10 10 10 10 10 10 10 10 11 11 10 10 9 9 9 9 9 8 7 7 7 7 7
2 2 3 3 3 2 2 1 2 4 7 9 8 1 8 11 11 9 9 9 8 8 8 8 9 9 9 10 10 10 10 10 9 9 9 9 8 8 7 7 7 6 7 7
4 4 1 5 5 1 4 2 2 3 6 9 8 5 9 12 11 10 9 8 8 8 8 8 7 6 7 8 9 8 8 8 8 8 8 8 8 7 6 5 6 5 6 6
4 3 3 6 6 5 4 5 3 2 5 7 8 8 9 10 9 9 8 8 8 7 7 6 6 5 6 7 8 6 6 6 6 7 7 7 6 6 6 6 6 5 6 6
4 4 3 9 7 5 3 4 1 2 4 6 7 7 8 9 9 9 9 9 9 8 7 6 5 5 5 5 4 3 3 4 5 5 5 5 5 5 6 6 6 6 6 6
4 2 5 7 5 1 1 1 1 3 4 5 6 8 9 9 9 9 9 9 8 8 8 6 5 5 5 3 1 1 1 3 3 4 4 5 5 5 5 5 5 5 5 6
6 6 6 7 6 5 4 2 1 2 3 4 6 7 8 8 8 9 9 9 8 9 8 8 7 5 5 3 2 2 2 3 3 4 5 6 4 4 4 5 5 6 6 6
6 4 7 9 9 8 6 4 2 1 1 3 5 7 8 8 8 8 8 8 8 8 9 9 8 6 5 4 3 3 1 2 3 4 5 5 5 4 4 5 6 5 5 5
5 8 7 9 12 10 8 6 4 2 0 2 4 6 7 7 8 8 8 8 8 8 9 9 9 7 5 4 4 4 1 2 2 3 3 4 4 5 4 3 4 6 8 8
2 6 5 6 11 11 9 6 4 2 1 3 4 5 7 7 7 8 8 8 9 9 9 9 8 7 7 5 4 3 1 2 2 2 3 3 4 4 4 4 4 5 8 10
4 7 7 7 9 10 9 7 5 3 2 3 4 5 6 7 7 8 9 9 9 8 8 9 8 8 8 6 3 2 1 3 2 2 2 3 4 4 4 3 3 4 6 8
9 8 6 8 10 10 9 7 6 5 3 2 3 4 6 7 8 8 8 9 8 7 8 9 9 9 9 6 3 1 2 2 2 2 2 3 3 4 4 4 4 4 4 5
13 9 7 9 11 11 10 9 7 5 4 2 3 4 6 6 7 7 8 8 8 8 9 10 10 10 9 6 2 1 3 3 2 2 2 2 2 3 4 4 4 4 5 5
16 15 13 12 12 12 11 9 7 5 4 3 2 4 5 6 6 7 8 8 7 7 7 8 10 10 9 6 2 1 3 5 4 2 1 1 1 2 3 3 3 4 4 5
15 15 14 13 12 12 11 9 7 6 5 3 2 4 5 6 7 7 8 8 7 6 7 8 10 10 7 6 3 0 2 3 3 2 1 1 1 2 2 3 3 3 3 3
13 13 13 12 11 11 10 9 8 7 5 4 4 4 4 5 6 7 8 8 7 7 8 10 11 9 7 6 5 2 2 3 3 3 2 2 2 2 2 2 2 2 2 2
13 13 13 12 11 10 9 9 8 7 6 5 5 5 5 5 5 6 7 6 4 5 8 10 10 7 7 6 6 3 3 3 3 3 3 3 3 2 2 2 2 1 1 1
14 14 13 13 12 11 10 10 9 8 7 7 6 6 5 5 5 5 6 5 4 6 9 9 7 6 6 8 8 5 4 4 4 4 4 4 3 3 3 3 3 2 2 1
13 13 14 13 12 11 10 10 9 9 8 7 7 7 6 6 6 6 6 4 5 6 7 6 6 7 10 12 7 5 5 5 4 4 4 4 4 4 3 3 3 2 2 2
11 12 13 13 13 12 11 10 10 9 9 9 8 8 7 6 5 5 5 3 4 7 8 6 9 12 15 10 6 5 5 6 5 5 5 5 4 4 4 4 3 3 3 2
9 10 11 12 12 12 12 11 10 9 9 9 8 8 7 6 6 6 6 5 6 8 8 7 10 12 13 7 5 5 5 5 5 5 5 5 5 5 4 4 4 3 3 4
6 8 10 11 11 10 11 11 10 10 9 8 9 9 8 6 6 5 5 6 6 7 7 7 9 11 9 6 5 5 5 5 5 5 5 5 5 5 5 5 4 4 4 4
2 4 6 8 8 7 7 7 8 8 8 8 8 7 7 6 7 7 6 7 8 8 7 6 7 7 6 6 6 5 5 5 5 6 6 5 6 6 5 5 6 5 4 4
1 2 3 5 6 6 6 7 8 8 8 8 8 7 7 6 6 7 7 7 6 6 6 6 6 6 6 6 6 6 5 5 5 6 6 6 5 5 6 7 6 5 5 5
Wind_Direction
107 104 43 39 26 28 34 21 13 6 14 357 344 347 358 9 19 32 38 40 39 38 35 34 35 35 36 36 36 44 54 50 37 31 29 27 25 12 356 320 276 261 254 251
155 193 329 46 33 25 26 13 7 25 36 343 331 348 6 15 24 33 39 42 42 41 39 38 39 41 44 46 46 51 54 50 42 41 42 39 36 37 39 34 20 360 302 277
133 161 225 101 35 17 19 15 359 9 342 323 336 356 7 9 19 34 38 40 40 40 39 38 39 39 43 44 49 53 54 52 48 49 49 46 47 48 47 49 48 44 34 20
209 213 210 81 81 323 310 0 346 325 326 332 336 337 16 21 16 23 27 31 34 36 39 41 43 45 48 49 51 52 52 51 48 49 50 49 48 45 43 46 49 46 41 39
242 235 123 161 192 239 274 66 20 338 346 350 333 163 67 29 11 7 9 14 22 25 33 40 38 36 47 53 54 52 48 47 46 47 46 45 44 41 35 37 43 46 44 38
229 251 198 134 132 168 252 164 92 350 354 355 353 48 37 4 353 356 358 0 2 10 24 35 34 29 43 51 54 52 47 47 47 45 42 40 39 36 36 38 39 46 48 38
238 250 126 129 142 187 232 94 83 2 355 356 7 3 343 342 351 353 352 352 348 354 11 15 11 12 32 42 48 46 43 43 41 40 37 32 29 29 29 36 40 44 49 42
226 234 156 145 169 212 43 73 49 354 352 348 344 343 348 353 357 358 357 355 348 343 348 352 353 352 20 36 38 42 43 42 38 31 24 20 23 27 30 28 35 39 37 37
251 21 93 169 194 156 139 216 351 340 343 337 337 346 349 352 356 358 357 355 347 337 329 332 347 342 347 18 355 355 42 43 31 31 35 26 24 29 35 36 34 33 30 25
241 220 196 194 200 196 205 236 287 309 322 329 337 343 347 349 351 352 353 352 343 335 331 335 340 330 322 326 290 285 18 32 26 24 34 47 45 36 37 36 33 30 23 13
233 190 187 205 202 192 189 202 211 225 309 339 342 348 348 347 351 349 345 344 341 338 332 328 331 331 329 312 286 290 1 48 33 40 35 44 62 49 39 53 28 9 3 357
209 186 189 186 184 183 185 191 193 200 276 351 346 348 348 351 352 346 343 343 344 345 339 337 339 341 347 326 293 290 351 48 42 46 47 45 61 101 97 53 40 26 18 3
64 162 154 140 163 174 185 185 185 209 287 327 344 350 348 352 354 350 349 351 350 348 346 347 348 354 358 341 304 285 306 94 81 51 55 54 48 47 86 127 135 74 44 32
163 162 166 167 169 176 180 182 191 207 241 295 328 344 348 350 357 359 357 351 345 345 351 352 352 357 353 341 312 267 150 111 109 89 61 57 53 53 52 57 78 84 78 50
191 196 183 169 168 173 178 183 196 210 228 269 320 339 350 350 353 355 353 348 342 349 357 353 353 354 349 338 318 206 152 137 125 99 90 78 71 68 70 72 66 49 48 68
186 190 183 178 178 179 184 193 205 209 218 262 308 338 347 342 340 346 354 354 348 351 352 348 349 347 344 336 329 152 126 96 123 138 136 117 98 84 79 80 72 60 45 29
181 189 191 190 188 189 193 199 206 208 213 240 292 321 328 331 335 346 351 350 345 343 348 351 346 341 343 341 331 153 143 144 174 192 149 118 101 88 91 97 91 74 62 40
200 197 194 193 188 189 194 198 203 209 218 228 259 280 308 328 335 337 339 337 339 350 4 357 349 335 345 354 344 232 170 165 176 161 153 158 130 119 105 109 111 103 96 98
204 200 197 197 193 192 193 195 200 207 210 214 234 262 298 314 323 326 329 330 338 347 353 349 334 328 348 4 339 266 217 190 187 176 171 156 201 166 152 136 125 120 104 86
200 199 197 195 193 195 196 196 197 201 207 215 230 249 273 299 317 320 322 319 334 343 333 333 327 337 341 354 332 287 240 218 211 197 192 199 196 180 176 170 164 148 125 80
198 196 196 194 193 197 201 198 195 200 202 208 227 245 268 287 298 304 310 310 334 345 328 315 319 335 337 333 306 280 250 227 216 211 202 204 201 193 195 189 185 186 195 195
201 197 196 196 196 199 200 201 200 201 202 207 221 237 250 264 276 286 286 280 305 326 317 316 329 340 328 313 289 271 247 230 218 210 208 209 210 206 200 195 202 205 202 204
202 200 199 199 201 203 198 199 201 203 207 213 220 229 238 252 268 277 289 297 308 324 313 311 328 322 315 300 281 261 238 225 216 209 209 211 215 214 206 199 205 208 209 203
207 204 203 202 203 204 200 200 203 206 212 219 226 233 239 246 251 247 256 271 281 297 297 307 310 314 309 292 283 263 238 221 214 213 210 209 213 218 213 207 205 206 204 200
210 205 201 199 201 204 207 204 202 206 212 221 228 228 232 238 251 264 269 276 284 288 294 303 305 308 303 302 293 271 245 225 216 211 210 212 213 217 216 209 205 203 201 200
221 210 207 207 208 207 205 202 203 205 211 220 228 228 226 225 236 245 253 262 269 276 284 295 306 306 313 313 301 281 258 225 206 212 216 216 213 211 212 207 202 201 200 199
335 217 214 217 215 213 211 207 213 215 216 222 231 231 226 223 225 232 241 251 260 268 279 289 300 309 312 307 296 281 259 241 228 220 214 211 211 210 208 205 201 196 193 195